TimeCDT,TemperatureF,Dew PointF,Humidity,Sea Level PressureIn,VisibilityMPH,Wind Direction,Wind SpeedMPH,Gust SpeedMPH,PrecipitationIn,Events,Conditions,WindDirDegrees,DateUTC
12:40 AM,44.6,42.8,93,29.94,7.0,Calm,Calm,-,N/A,,Clear,0,2012-10-06 05:40:00
12:55 AM,55,50,77,29.85,5,SSE,2.2,,,,,160,2012-10-06 05:55:00
1:42 AM,42.8,41.0,93,30.25,7.0,Calm,Calm,-,N/A,,Clear,0,2012-10-06 06:42:00
2:41 AM,41.0,39.2,93,30.24,7.0,Calm,Calm,-,N/A,,Clear,0,2012-10-06 07:41:00
3:43 AM,39.2,37.4,93,29.95,7.0,Calm,Calm,-,N/A,,Clear,0,2012-10-06 08:43:00
3:45 AM,52,49,86,29.90,5,SSW,4.5,,,,,210,2012-10-06 08:45:00
4:40 AM,39.2,37.4,93,30.24,7.0,Calm,Calm,-,N/A,,Clear,0,2012-10-06 09:40:00
5:41 AM,39.2,37.4,93,30.23,7.0,Calm,Calm,-,N/A,,Clear,0,2012-10-06 10:41:00
6:44 AM,37.4,35.6,93,29.95,7.0,Calm,Calm,-,N/A,,Clear,0,2012-10-06 11:44:00
6:45 AM,46,41,76,30.01,5,SSW,4.5,,,,,210,2012-10-06 11:45:00
7:44 AM,35.6,33.8,93,30.26,8.0,Calm,Calm,-,N/A,,Clear,0,2012-10-06 12:44:00
8:41 AM,42.8,41.0,93,30.28,8.0,Calm,Calm,-,N/A,,Clear,0,2012-10-06 13:41:00
9:13 AM,50.0,42.8,76,30.28,8.0,Calm,Calm,-,N/A,,Clear,0,2012-10-06 14:13:00
9:50 AM,56,42,49,30.10,9,West,2.2,,,,,260,2012-10-06 14:50:00
10:15 AM,60.8,44.6,55,30.00,8.0,Calm,Calm,-,N/A,,Clear,0,2012-10-06 15:15:00
10:40 AM,60.8,42.8,52,30.28,8.0,Calm,Calm,-,N/A,,Clear,0,2012-10-06 15:40:00
11:47 AM,68.0,44.6,43,30.27,8.0,Calm,Calm,-,N/A,,Clear,0,2012-10-06 16:47:00
12:24 PM,71.6,46.4,41,30.25,8.0,Calm,Calm,-,N/A,,Clear,0,2012-10-06 17:24:00
12:49 PM,73.4,44.6,36,29.92,8.0,North,4.6,-,N/A,,Clear,10,2012-10-06 17:49:00
12:50 PM,73,44,25,30.01,9,North,4.5,,,,,0,2012-10-06 17:50:00
1:45 PM,75.2,41.0,29,30.19,8.0,Calm,Calm,-,N/A,,Clear,0,2012-10-06 18:45:00
2:42 PM,78.8,37.4,23,30.16,8.0,Calm,Calm,-,N/A,,Clear,0,2012-10-06 19:42:00
3:42 PM,78.8,44.6,30,29.80,8.0,NE,4.6,-,N/A,,Clear,40,2012-10-06 20:42:00
3:50 PM,78,40,16,29.83,9,West,6.7,,,,,270,2012-10-06 20:50:00
4:40 PM,80.6,39.2,23,30.10,8.0,Calm,Calm,-,N/A,,Clear,0,2012-10-06 21:40:00
5:40 PM,80.6,37.4,21,30.09,8.0,Calm,Calm,-,N/A,,Clear,0,2012-10-06 22:40:00
6:28 PM,77.0,41.0,28,30.09,8.0,WNW,4.6,-,N/A,,Clear,290,2012-10-06 23:28:00
6:46 PM,75.2,41.0,29,29.80,8.0,WNW,4.6,-,N/A,,Clear,290,2012-10-06 23:46:00
6:50 PM,76,41,18,29.70,9,WSW,4.5,,,,,240,2012-10-06 23:50:00
7:40 PM,68.0,42.8,40,30.11,8.0,WNW,4.6,-,N/A,,Clear,290,2012-10-07 00:40:00
8:01 PM,64.4,41.0,42,30.11,8.0,WNW,4.6,-,N/A,,Clear,300,2012-10-07 01:01:00
8:25 PM,59.0,44.6,59,30.12,8.0,Calm,Calm,-,N/A,,Clear,0,2012-10-07 01:25:00
8:40 PM,57.2,44.6,63,30.12,8.0,Calm,Calm,-,N/A,,Clear,0,2012-10-07 01:40:00
9:45 PM,61,37,30,29.72,6,SSW,2.2,,,,,200,2012-10-07 02:45:00
9:45 PM,53.6,44.6,72,29.83,8.0,Calm,Calm,-,N/A,,Clear,0,2012-10-07 02:45:00
10:43 PM,51.8,44.6,76,30.18,8.0,Calm,Calm,-,N/A,,Clear,0,2012-10-07 03:43:00
11:44 PM,50.0,42.8,76,30.18,8.0,Calm,Calm,-,N/A,,Clear,0,2012-10-07 04:44:00